{"data":{"norad_id":65183,"epoch":"2026-05-25T03:29:57.679008Z","epoch_age_seconds":56258,"freshness":"FRESH","line1":"1 65183U 25175K   26145.14580647  .00003152  00000+0  22237-3 0  9995","line2":"2 65183  97.4501  17.6216 0002620  83.6615 276.4911 15.05659894 44115","mean_motion":15.05659894,"eccentricity":0.000262,"inclination_deg":97.4501,"raan_deg":17.6216,"arg_perigee_deg":83.6615,"mean_anomaly_deg":276.4911,"bstar":0.00022237,"rev_number":4411,"period_min":95.639128447158,"perigee_km":547.66576947621,"apogee_km":551.29584120621,"semimajor_km":6927.6178053412,"source":"CELESTRAK","updated_at":"2026-05-25T13:38:20.712747Z"}}